Location: Possagno
(45.8500°N, 11.8667°E)
Time: 20:35:40
(UTC+00:00)

SL-08 R/B - Visible Passes

Search period start: 25 September 2020 00:00
Search period end: 05 October 2020 00:00
Orbit: 673 x 740 km, 98.4° (Epoch: 24 September)

Date Brightness Start Highest point End Pass type
(mag) Time Alt. Az. Time Alt. Az. Time Alt. Az.
25 Sep 5.6 01:18:48 20° NNE 01:18:48 20° NNE 01:20:34 10° N visible
25 Sep 5.4 02:57:48 13° NW 02:57:48 13° NW 02:58:27 10° NNW visible
26 Sep 5.3 02:03:34 20° N 02:03:34 20° N 02:05:02 10° N visible
27 Sep 5.9 01:09:20 16° NNE 01:09:20 16° NNE 01:10:38 10° N visible
27 Sep 5.5 02:48:19 13° NNW 02:48:19 13° NNW 02:48:52 10° NNW visible
28 Sep 5.5 01:54:06 17° N 01:54:06 17° N 01:55:15 10° N visible
29 Sep 6.1 00:59:52 13° NNE 00:59:52 13° NNE 01:00:38 10° NNE visible
29 Sep 5.6 02:38:51 12° NNW 02:38:51 12° NNW 02:39:13 10° NNW visible
30 Sep 5.8 01:44:37 15° N 01:44:37 15° N 01:45:25 10° N visible
01 Oct 6.3 00:50:24 11° NNE 00:50:24 11° NNE 00:50:34 10° NNE visible
01 Oct 5.8 02:29:23 11° NNW 02:29:23 11° NNW 02:29:32 10° NNW visible
02 Oct 6.0 01:35:09 12° N 01:35:09 12° N 01:35:34 10° N visible
04 Oct 6.2 01:25:41 10° N 01:25:41 10° N 01:25:41 10° N visible
